This is the latest recevied weather packets stored in our database for station/object WP3OF. If no packets are shown the sender has not sent any weather packets the latest 10 day(s).
| Time | Temp. | Humidity | Pressure | Rain* | Wind** | Luminosity | Snow |
|---|---|---|---|---|---|---|---|
| 1788629010 | 29.44° C | 80% | 1015.9 hPa | 0 mm | - | - | - |
| 1788628706 | 29.44° C | 80% | 1015.9 hPa | 0 mm | - | - | - |
| 1788628403 | 29.44° C | 80% | 1016 hPa | 0 mm | - | - | - |
| 1788628099 | 29.44° C | 80% | 1015.9 hPa | 0 mm | - | - | - |
| 1788627803 | 29.44° C | 81% | 1016 hPa | 0 mm | - | - | - |
| 1788627494 | 29.44° C | 79% | 1016.1 hPa | 0 mm | - | - | - |
| 1788627190 | 29.44° C | 78% | 1016.2 hPa | 0 mm | - | - | - |
| 1788626889 | 28.89° C | 81% | 1016.2 hPa | 0 mm | - | - | - |
| 1788626584 | 28.89° C | 82% | 1016.3 hPa | 0 mm | - | - | - |
| 1788626279 | 29.44° C | 82% | 1016.5 hPa | 0 mm | - | - | - |
| 1788625976 | 29.44° C | 80% | 1016.5 hPa | 0 mm | - | - | - |
| 1788625672 | 28.89° C | 83% | 1016.6 hPa | 0 mm | - | - | - |
| 1788625371 | 28.89° C | 83% | 1016.7 hPa | 0 mm | - | - | - |
| 1788625071 | 28.89° C | 83% | 1016.8 hPa | 0 mm | - | - | - |
| 1788624770 | 28.89° C | 83% | 1017.1 hPa | 0 mm | - | - | - |
| 1788624468 | 29.44° C | 82% | 1016.9 hPa | 0 mm | - | - | - |
| 1788624163 | 28.89° C | 81% | 1017.1 hPa | 0 mm | - | - | - |
| 1788623858 | 28.89° C | 81% | 1017.2 hPa | 0 mm | - | - | - |
| 1788623557 | 28.89° C | 83% | 1017 hPa | 0 mm | - | - | - |
| 1788623251 | 28.89° C | 82% | 1017 hPa | 0 mm | - | - | - |
| 1788622947 | 28.89° C | 82% | 1017.5 hPa | 0 mm | - | - | - |
| 1788622642 | 28.89° C | 81% | 1017.4 hPa | 0 mm | - | - | - |
| 1788622338 | 29.44° C | 79% | 1017.3 hPa | 0 mm | - | - | - |
| 1788622033 | 29.44° C | 79% | 1017.5 hPa | 0 mm | - | - | - |
| 1788621727 | 28.89° C | 80% | 1017.3 hPa | 0 mm | - | - | - |
* Rain latest hour (hover to see other rain measurements)
** Current wind speed in m/s (hover to see current wind gust speed)